Location: Peterborough
(44.3091°N, 78.3197°W)
Time: 05:48:42
(UTC-04:00)

Courier 1B Rocket - Visible Passes

Search period start: 22 March 2023 00:00
Search period end: 01 April 2023 00:00
Orbit: 920 x 1202 km, 28.2° (Epoch: 21 March)

Date Brightness Start Highest point End Pass type
(mag) Time Alt. Az. Time Alt. Az. Time Alt. Az.
23 Mar 7.0 21:18:59 10° S 21:20:10 11° S 21:20:10 11° S visible
24 Mar 7.1 22:08:35 10° SSW 22:09:35 13° SSW 22:09:35 13° SSW visible
25 Mar 6.7 21:08:11 10° SSW 21:11:51 15° SSE 21:12:33 15° SSE visible
26 Mar 6.9 20:08:13 10° S 20:11:05 13° SSE 20:13:52 10° SE visible
26 Mar 6.7 21:58:54 10° SW 22:01:51 17° SSW 22:01:51 17° SSW visible
27 Mar 6.6 20:58:10 10° SSW 21:02:38 18° S 21:04:43 16° SSE visible
27 Mar 7.3 22:50:34 10° SW 22:51:06 11° SW 22:51:06 11° SW visible
28 Mar 6.9 19:57:38 10° SSW 20:01:49 16° SSE 20:05:51 10° SE visible
28 Mar 6.6 21:49:27 10° SW 21:53:55 20° S 21:53:55 20° S visible
29 Mar 6.6 20:48:27 10° SW 20:53:25 20° S 20:56:43 14° SE visible
29 Mar 7.1 22:41:33 10° SW 22:43:05 14° SW 22:43:05 14° SW visible
30 Mar 6.6 21:40:11 10° SW 21:45:01 20° S 21:45:50 19° S visible
31 Mar 6.7 20:38:59 10° SW 20:44:11 21° S 20:48:35 12° SE visible
31 Mar 7.1 22:32:47 10° SW 22:34:56 14° SSW 22:34:56 14° SSW visible
